Orbital Elements
Epoch 2012 Aug. 21.0 TT = JDT 2456160.5
T 2012 Aug. 18.47094 TT MPC
q 3.8906521 (2000.0) P Q
z +0.0008219 Peri. 232.38263 +0.18297547 +0.14503869
+/-0.0000007 Node 89.81664 -0.25418382 +0.96240727
e 0.9968023 Incl. 76.49876 -0.94968972 -0.22964325
From 275 observations 2011 May 23-2014 Feb. 28, mean residual 0".4.
|